Terug naar catalogus

GECAM-A

ActiefWetenschapVLEO
NORAD 47234·PAYLOAD·🇨🇳 China

Gelanceerd Dec 9, 2020 vanaf Xichang Satellite Launch Center

Loading…

Volgende Passages (komende 24 uur)

TLE

VerouderdSource: Space-Track

Epoch: Jun 17, 2026, 06:46 UTC

1 47234U 20094A   26168.28213975  .00001679  00000-0  11743-3 0  9997
2 47234  28.9954  25.3931 0010614 318.1471  41.8315 15.00786144301708

Volg GECAM-A in realtime met AllMySat

Download on the App Store